TimeCDT,TemperatureF,Dew PointF,Humidity,Sea Level PressureIn,VisibilityMPH,Wind Direction,Wind SpeedMPH,Gust SpeedMPH,PrecipitationIn,Events,Conditions,WindDirDegrees,DateUTC
12:13 AM,64.4,53.6,68,29.92,10.0,Calm,Calm,-,N/A,,Clear,320,2013-06-17 05:13:00
12:34 AM,62.6,53.6,72,29.92,10.0,NW,3.5,-,N/A,,Clear,310,2013-06-17 05:34:00
12:53 AM,64.4,51.8,64,29.92,10.0,NNW,5.8,-,N/A,,Clear,330,2013-06-17 05:53:00
1:13 AM,62.6,51.8,68,29.92,10.0,NW,5.8,-,N/A,,Clear,320,2013-06-17 06:13:00
1:34 AM,62.6,51.8,68,29.93,10.0,NW,3.5,-,N/A,,Clear,310,2013-06-17 06:34:00
1:53 AM,60.8,53.6,77,29.93,10.0,SW,3.5,-,N/A,,Clear,230,2013-06-17 06:53:00
2:13 AM,60.8,51.8,72,29.93,10.0,West,5.8,-,N/A,,Clear,270,2013-06-17 07:13:00
2:34 AM,59.0,53.6,82,29.93,10.0,West,6.9,-,N/A,,Clear,260,2013-06-17 07:34:00
2:53 AM,59.0,53.6,82,29.93,10.0,WSW,4.6,-,N/A,,Clear,240,2013-06-17 07:53:00
3:13 AM,57.2,53.6,88,29.94,10.0,West,6.9,-,N/A,,Clear,260,2013-06-17 08:13:00
3:33 AM,59.0,53.6,82,29.94,10.0,West,6.9,-,N/A,,Clear,270,2013-06-17 08:33:00
3:53 AM,57.2,55.4,94,29.94,10.0,West,6.9,-,N/A,,Clear,260,2013-06-17 08:53:00
4:13 AM,57.2,55.4,94,29.93,10.0,WSW,8.1,-,N/A,,Clear,250,2013-06-17 09:13:00
4:33 AM,57.2,53.6,88,29.93,10.0,West,8.1,-,N/A,,Clear,260,2013-06-17 09:33:00
4:53 AM,57.2,53.6,88,29.94,10.0,WSW,6.9,-,N/A,,Clear,240,2013-06-17 09:53:00
5:13 AM,55.4,53.6,94,29.94,10.0,WSW,6.9,-,N/A,,Clear,250,2013-06-17 10:13:00
5:33 AM,55.4,53.6,94,29.94,10.0,WSW,6.9,-,N/A,,Clear,250,2013-06-17 10:33:00
5:53 AM,55.4,53.6,94,29.94,10.0,West,6.9,-,N/A,,Clear,260,2013-06-17 10:53:00
6:14 AM,57.2,53.6,88,29.94,10.0,West,8.1,-,N/A,,Clear,270,2013-06-17 11:14:00
6:33 AM,59.0,53.6,82,29.95,10.0,West,8.1,-,N/A,,Clear,260,2013-06-17 11:33:00
6:53 AM,60.8,53.6,77,29.95,10.0,West,6.9,-,N/A,,Clear,270,2013-06-17 11:53:00
7:13 AM,62.6,53.6,72,29.95,10.0,West,8.1,-,N/A,,Clear,270,2013-06-17 12:13:00
7:34 AM,62.6,53.6,72,29.96,10.0,West,6.9,-,N/A,,Clear,270,2013-06-17 12:34:00
7:53 AM,64.4,55.4,73,29.96,10.0,West,8.1,-,N/A,,Clear,270,2013-06-17 12:53:00
8:13 AM,64.4,55.4,73,29.96,10.0,West,8.1,-,N/A,,Clear,270,2013-06-17 13:13:00
8:34 AM,66.2,55.4,68,29.97,10.0,West,9.2,-,N/A,,Clear,260,2013-06-17 13:34:00
8:53 AM,66.2,55.4,68,29.97,10.0,West,10.4,-,N/A,,Clear,270,2013-06-17 13:53:00
9:13 AM,68.0,55.4,64,29.97,10.0,West,11.5,-,N/A,,Clear,270,2013-06-17 14:13:00
9:34 AM,69.8,55.4,60,29.97,10.0,WNW,9.2,-,N/A,,Clear,290,2013-06-17 14:34:00
9:53 AM,69.8,55.4,60,29.97,10.0,West,10.4,-,N/A,,Clear,280,2013-06-17 14:53:00
10:13 AM,71.6,55.4,57,29.97,10.0,West,12.7,17.3,N/A,,Clear,280,2013-06-17 15:13:00
10:34 AM,71.6,55.4,57,29.97,10.0,West,11.5,-,N/A,,Clear,260,2013-06-17 15:34:00
10:53 AM,71.6,55.4,57,29.97,10.0,West,13.8,19.6,N/A,,Clear,280,2013-06-17 15:53:00
11:13 AM,73.4,55.4,53,29.97,10.0,WNW,13.8,18.4,N/A,,Clear,290,2013-06-17 16:13:00
11:34 AM,71.6,55.4,57,29.97,10.0,WNW,12.7,-,N/A,,Scattered Clouds,290,2013-06-17 16:34:00
11:53 AM,73.4,55.4,53,29.98,10.0,WNW,11.5,18.4,N/A,,Scattered Clouds,290,2013-06-17 16:53:00
12:14 PM,73.4,55.4,53,29.98,10.0,NW,13.8,-,N/A,,Scattered Clouds,320,2013-06-17 17:14:00
12:33 PM,71.6,55.4,57,29.98,10.0,NW,13.8,18.4,N/A,,Scattered Clouds,320,2013-06-17 17:33:00
12:53 PM,73.4,55.4,53,29.99,10.0,NW,10.4,-,N/A,,Scattered Clouds,310,2013-06-17 17:53:00
1:13 PM,75.2,53.6,47,29.99,10.0,NW,11.5,-,N/A,,Scattered Clouds,310,2013-06-17 18:13:00
1:34 PM,73.4,55.4,53,29.99,10.0,WNW,11.5,-,N/A,,Scattered Clouds,300,2013-06-17 18:34:00
1:53 PM,75.2,53.6,47,29.98,10.0,WNW,9.2,-,N/A,,Clear,300,2013-06-17 18:53:00
2:13 PM,77.0,53.6,44,29.99,10.0,WNW,10.4,16.1,N/A,,Scattered Clouds,290,2013-06-17 19:13:00
2:34 PM,73.4,55.4,53,29.98,10.0,NNW,13.8,-,N/A,,Scattered Clouds,330,2013-06-17 19:34:00
2:53 PM,77.0,55.4,47,29.98,10.0,WNW,16.1,21.9,N/A,,Clear,300,2013-06-17 19:53:00
3:13 PM,77.0,55.4,47,29.98,10.0,NW,15.0,18.4,N/A,,Clear,310,2013-06-17 20:13:00
3:33 PM,78.8,55.4,44,29.98,10.0,NW,12.7,20.7,N/A,,Scattered Clouds,310,2013-06-17 20:33:00
3:53 PM,77.0,53.6,44,29.98,10.0,WNW,10.4,18.4,N/A,,Scattered Clouds,300,2013-06-17 20:53:00
4:13 PM,78.8,55.4,44,29.97,10.0,WNW,13.8,19.6,N/A,,Scattered Clouds,300,2013-06-17 21:13:00
4:33 PM,77.0,51.8,41,29.97,10.0,NNW,9.2,19.6,N/A,,Scattered Clouds,330,2013-06-17 21:33:00
4:53 PM,75.2,51.8,44,29.97,10.0,NW,11.5,17.3,N/A,,Clear,320,2013-06-17 21:53:00
5:14 PM,75.2,53.6,47,29.97,10.0,NW,13.8,-,N/A,,Clear,320,2013-06-17 22:14:00
5:33 PM,73.4,53.6,50,29.98,10.0,North,6.9,-,N/A,,Clear,350,2013-06-17 22:33:00
5:53 PM,75.2,53.6,47,29.97,10.0,North,8.1,-,N/A,,Scattered Clouds,360,2013-06-17 22:53:00
6:14 PM,75.2,53.6,47,29.97,10.0,NNW,9.2,-,N/A,,Scattered Clouds,340,2013-06-17 23:14:00
6:33 PM,75.2,53.6,47,29.97,10.0,North,9.2,-,N/A,,Scattered Clouds,350,2013-06-17 23:33:00
6:53 PM,73.4,53.6,50,29.97,10.0,NNW,6.9,-,N/A,,Clear,340,2013-06-17 23:53:00
7:14 PM,73.4,51.8,47,29.97,10.0,NNW,9.2,-,N/A,,Clear,330,2013-06-18 00:14:00
7:33 PM,73.4,53.6,50,29.97,10.0,North,8.1,-,N/A,,Clear,360,2013-06-18 00:33:00
7:53 PM,73.4,53.6,50,29.98,10.0,North,8.1,-,N/A,,Clear,350,2013-06-18 00:53:00
8:13 PM,71.6,53.6,53,29.98,10.0,North,6.9,-,N/A,,Clear,360,2013-06-18 01:13:00
8:33 PM,69.8,57.2,64,29.99,10.0,ENE,10.4,18.4,N/A,,Scattered Clouds,60,2013-06-18 01:33:00
8:53 PM,68.0,55.4,64,29.99,10.0,East,9.2,-,N/A,,Scattered Clouds,80,2013-06-18 01:53:00
9:13 PM,66.2,55.4,68,30.00,10.0,ENE,11.5,-,N/A,,Clear,60,2013-06-18 02:13:00
9:33 PM,66.2,57.2,73,30.01,10.0,NE,8.1,-,N/A,,Clear,50,2013-06-18 02:33:00
9:53 PM,64.4,57.2,77,30.02,10.0,NE,8.1,-,N/A,,Mostly Cloudy,50,2013-06-18 02:53:00
10:13 PM,66.2,57.2,73,30.03,10.0,NE,6.9,-,N/A,,Mostly Cloudy,50,2013-06-18 03:13:00
10:33 PM,64.4,57.2,77,30.03,10.0,ENE,8.1,-,N/A,Rain,Light Rain,60,2013-06-18 03:33:00
10:54 PM,64.4,57.2,77,30.04,10.0,ENE,15.0,-,N/A,,Scattered Clouds,70,2013-06-18 03:54:00
11:13 PM,64.4,57.2,77,30.04,10.0,ENE,13.8,18.4,N/A,,Scattered Clouds,70,2013-06-18 04:13:00
11:33 PM,62.6,57.2,82,30.04,10.0,ENE,13.8,-,N/A,Rain,Light Rain,70,2013-06-18 04:33:00
11:54 PM,60.8,55.4,82,30.05,10.0,East,11.5,15.0,N/A,Rain,Light Rain,80,2013-06-18 04:54:00